Weather History for KAVC - January, 2014

Change the Weather History Date:

Monday, January 27, 2014

  Actual Average (KEMV) Record (KEMV)
Temperature  
Mean Temperature 48 °F -  
Max Temperature 64 °F 45 °F 66 °F (1989)
Min Temperature 30 °F 23 °F 12 °F (1987)
Degree Days  
Heating Degree Days 17    
Moisture  
Dew Point 27 °F    
Average Humidity 47    
Maximum Humidity 100    
Minimum Humidity 26    
Precipitation  
Precipitation 0.00 in - - ()
Sea Level Pressure  
Sea Level Pressure 29.90 in    
Wind  
Wind Speed 8 mph (WSW)    
Max Wind Speed 16 mph    
Max Gust Speed 21 mph    
Visibility 10 miles    
Events      
Averages and records for this station are not official NWS values.
T = Trace of Precipitation, MM = Missing Value Source: NWS Daily Summary

Daily Weather History Graph

Daily Weather History Graph

Search for Another Location

Airport or City:

Trip Planner

Search our weather history database for the weather conditions in past years. The results will help you decide how hot, cold, wet, or windy it might be!

Date:

Astronomy

Jan. 27, 2014 Rise Set
Actual Time 7:17 AM EST 5:32 PM EST
Civil Twilight 6:50 AM EST 6:00 PM EST
Nautical Twilight 6:19 AM EST 6:31 PM EST
Astronomical Twilight 5:48 AM EST 7:01 PM EST
Moon 3:56 AM EST (1/27) 2:17 PM EST (1/27)
Length of Visible Light 11h 09m
Length of Day
10h 14m
Waning Crescent, 15% of the Moon is Illuminated
Jan 27
Waning Crescent
Jan 30
New
Feb 6
First Quarter
Feb 14
Full
Feb 22
Last Quarter

Hourly Weather History & Observations

Time (EST) Temp. Windchill Dew Point Humidity Pressure Visibility Wind Dir Wind Speed Gust Speed Precip Events Conditions
12:15 AM 39.2 °F 35.0 °F 23.0 °F 52% 29.87 in 10.0 mi South 5.8 mph - N/A   Clear
12:35 AM 39.2 °F 35.0 °F 24.8 °F 56% 29.86 in 10.0 mi South 5.8 mph - N/A   Clear
12:55 AM 39.2 °F 35.0 °F 24.8 °F 56% 29.86 in 10.0 mi South 5.8 mph - N/A   Clear
1:15 AM 39.2 °F 35.0 °F 24.8 °F 56% 29.85 in 10.0 mi South 5.8 mph - N/A   Clear
1:35 AM 39.2 °F 35.0 °F 24.8 °F 56% 29.85 in 10.0 mi South 5.8 mph - N/A   Clear
1:55 AM 39.2 °F 35.0 °F 24.8 °F 56% 29.85 in 10.0 mi South 5.8 mph - N/A   Clear
2:15 AM 39.2 °F 35.0 °F 24.8 °F 56% 29.85 in 10.0 mi South 5.8 mph - N/A   Clear
2:35 AM 39.2 °F 35.0 °F 26.6 °F 61% 29.85 in 10.0 mi South 5.8 mph - N/A   Clear
2:55 AM 39.2 °F 35.0 °F 26.6 °F 61% 29.85 in 10.0 mi South 5.8 mph - N/A   Clear
3:15 AM 41.0 °F 35.8 °F 26.6 °F 57% 29.85 in 10.0 mi South 8.1 mph - N/A   Clear
3:35 AM 39.2 °F 35.0 °F 26.6 °F 61% 29.85 in 10.0 mi South 5.8 mph - N/A   Clear
3:55 AM 37.4 °F 31.4 °F 26.6 °F 65% 29.85 in 10.0 mi South 8.1 mph - N/A   Clear
4:15 AM 39.2 °F 33.6 °F 28.4 °F 65% 29.84 in 10.0 mi South 8.1 mph - N/A   Clear
4:35 AM 41.0 °F 34.7 °F 28.4 °F 61% 29.84 in 10.0 mi South 10.4 mph - N/A   Unknown
4:55 AM 42.8 °F 37.5 °F 28.4 °F 57% 29.84 in 10.0 mi South 9.2 mph - N/A   Clear
5:15 AM 42.8 °F 37.0 °F 30.2 °F 61% 29.84 in 10.0 mi South 10.4 mph - N/A   Clear
5:35 AM 42.8 °F 38.0 °F 30.2 °F 61% 29.83 in 10.0 mi SSW 8.1 mph - N/A   Clear
5:55 AM 42.8 °F 38.6 °F 30.2 °F 61% 29.84 in 10.0 mi South 6.9 mph - N/A   Mostly Cloudy
6:15 AM 42.8 °F 39.3 °F 30.2 °F 61% 29.84 in 10.0 mi South 5.8 mph - N/A   Mostly Cloudy
6:35 AM 42.8 °F 38.6 °F 30.2 °F 61% 29.84 in 10.0 mi SSW 6.9 mph - N/A   Mostly Cloudy
6:55 AM 44.6 °F 39.7 °F 30.2 °F 57% 29.83 in 10.0 mi South 9.2 mph - N/A   Scattered Clouds
7:15 AM 46.4 °F 42.4 °F 30.2 °F 53% 29.84 in 10.0 mi SSW 8.1 mph - N/A   Clear
7:35 AM 48.2 °F - 30.2 °F 50% 29.84 in 10.0 mi SW 9.2 mph - N/A   Unknown
7:55 AM 48.2 °F - 30.2 °F 50% 29.84 in 10.0 mi SW 8.1 mph 16.1 mph N/A   Unknown
8:15 AM 48.2 °F - 30.2 °F 50% 29.85 in 10.0 mi SW 9.2 mph - N/A   Clear
8:35 AM 50.0 °F - 30.2 °F 47% 29.84 in 10.0 mi SSW 8.1 mph - N/A   Clear
8:55 AM 50.0 °F - 30.2 °F 47% 29.85 in 10.0 mi SW 12.7 mph 16.1 mph N/A   Clear
9:15 AM 50.0 °F - 30.2 °F 47% 29.85 in 10.0 mi SW 9.2 mph 17.3 mph N/A   Scattered Clouds
9:35 AM 50.0 °F - 30.2 °F 47% 29.86 in 10.0 mi SW 10.4 mph - N/A   Clear
9:55 AM 51.8 °F - 30.2 °F 44% 29.85 in 10.0 mi WSW 11.5 mph - N/A   Scattered Clouds
10:15 AM 53.6 °F - 32.0 °F 44% 29.85 in 10.0 mi SW 13.8 mph 18.4 mph N/A   Clear
10:35 AM 55.4 °F - 32.0 °F 41% 29.85 in 10.0 mi SW 10.4 mph 16.1 mph N/A   Clear
10:55 AM 57.2 °F - 32.0 °F 38% 29.85 in 10.0 mi SW 12.7 mph 18.4 mph N/A   Clear
11:15 AM 57.2 °F - 32.0 °F 38% 29.84 in 10.0 mi WSW 8.1 mph - N/A   Clear
11:35 AM 60.8 °F - 33.8 °F 36% 29.84 in 10.0 mi SW 12.7 mph - N/A   Scattered Clouds
11:55 AM 59.0 °F - 33.8 °F 39% 29.84 in 10.0 mi WSW 11.5 mph 17.3 mph N/A   Scattered Clouds
12:15 PM 62.6 °F - 33.8 °F 34% 29.83 in 10.0 mi SSW 10.4 mph 19.6 mph N/A   Clear
12:35 PM 62.6 °F - 33.8 °F 34% 29.82 in 10.0 mi WSW 6.9 mph 17.3 mph N/A   Clear
12:55 PM 64.4 °F - 33.8 °F 32% 29.81 in 10.0 mi SW 8.1 mph - N/A   Clear
1:15 PM 64.4 °F - 33.8 °F 32% 29.81 in 10.0 mi WSW 10.4 mph 19.6 mph N/A   Clear
1:35 PM 64.4 °F - 33.8 °F 32% 29.81 in 10.0 mi West 12.7 mph 19.6 mph N/A   Clear
1:55 PM 64.4 °F - 33.8 °F 32% 29.80 in 10.0 mi West 9.2 mph 19.6 mph N/A   Clear
2:15 PM 64.4 °F - 33.8 °F 32% 29.81 in 10.0 mi West 11.5 mph 18.4 mph N/A   Clear
2:35 PM 64.4 °F - 33.8 °F 32% 29.81 in 10.0 mi West 5.8 mph - N/A   Clear
2:55 PM 64.4 °F - 33.8 °F 32% 29.81 in 10.0 mi WSW 11.5 mph 18.4 mph N/A   Scattered Clouds
3:15 PM 62.6 °F - 33.8 °F 34% 29.81 in 10.0 mi West 5.8 mph - N/A   Mostly Cloudy
3:35 PM 64.4 °F - 33.8 °F 32% 29.82 in 10.0 mi WSW 8.1 mph 16.1 mph N/A   Scattered Clouds
3:55 PM 64.4 °F - 33.8 °F 32% 29.83 in 10.0 mi WSW 9.2 mph - N/A   Scattered Clouds
4:15 PM 62.6 °F - 33.8 °F 34% 29.84 in 10.0 mi NW 5.8 mph - N/A   Mostly Cloudy
4:35 PM 33.8 °F 27.7 °F 33.8 °F 100% 29.86 in 10.0 mi NW 6.9 mph - N/A   Scattered Clouds
4:55 PM 57.2 °F - 32.0 °F 38% - 10.0 mi NW 5.8 mph - N/A   Scattered Clouds
5:15 PM 57.2 °F - 33.8 °F 41% 29.88 in 10.0 mi NW 5.8 mph - N/A   Mostly Cloudy
5:35 PM 57.2 °F - 33.8 °F 41% 29.89 in 10.0 mi WNW 5.8 mph - N/A   Overcast
5:55 PM 55.4 °F - 33.8 °F 44% 29.91 in 10.0 mi NW 6.9 mph - N/A   Overcast
6:15 PM 33.8 °F 25.8 °F 30.2 °F 87% 29.93 in 10.0 mi NNW 10.4 mph 20.7 mph N/A   Overcast
6:35 PM 48.2 °F - 26.6 °F 43% 29.95 in 10.0 mi NW 8.1 mph 19.6 mph N/A   Scattered Clouds
6:55 PM 46.4 °F 42.4 °F 26.6 °F 46% 29.97 in 10.0 mi NW 8.1 mph - N/A   Scattered Clouds
7:15 PM 44.6 °F 40.2 °F 24.8 °F 46% 29.99 in 10.0 mi NW 8.1 mph 19.6 mph N/A   Overcast
7:35 PM 42.8 °F 39.3 °F 23.0 °F 46% 30.02 in 10.0 mi NW 5.8 mph - N/A   Scattered Clouds
7:55 PM 42.8 °F 40.1 °F 23.0 °F 46% 30.03 in 10.0 mi NW 4.6 mph - N/A   Clear
8:15 PM 41.0 °F 39.0 °F 21.2 °F 45% 30.05 in 10.0 mi NW 3.5 mph - N/A   Clear
8:35 PM 39.2 °F 35.9 °F 23.0 °F 52% 30.06 in 10.0 mi NNW 4.6 mph - N/A   Clear
8:55 PM 37.4 °F 31.4 °F 21.2 °F 52% 30.07 in 10.0 mi NNW 8.1 mph - N/A   Clear
9:15 PM 39.2 °F 30.5 °F 14.0 °F 36% 30.08 in 10.0 mi North 16.1 mph 19.6 mph N/A   Clear
9:35 PM 37.4 °F 32.1 °F 8.6 °F 30% 30.09 in 10.0 mi NW 6.9 mph - N/A   Unknown
9:55 PM 37.4 °F 32.8 °F 5.0 °F 26% 30.11 in 10.0 mi NW 5.8 mph - N/A   Scattered Clouds
10:15 PM 35.6 °F 30.7 °F 3.2 °F 26% 30.12 in 10.0 mi NNW 5.8 mph - N/A   Clear
10:35 PM 35.6 °F 29.2 °F 5.0 °F 28% 30.13 in 10.0 mi NNW 8.1 mph - N/A   Clear
10:55 PM 33.8 °F 29.6 °F 12.2 °F 41% 30.14 in 10.0 mi NNE 4.6 mph - N/A   Clear
11:15 PM 33.8 °F 28.6 °F 12.2 °F 41% 30.16 in 10.0 mi North 5.8 mph - N/A   Clear
11:35 PM 32.0 °F 27.5 °F 10.4 °F 41% 30.17 in 10.0 mi NNE 4.6 mph - N/A   Clear
11:55 PM 30.2 °F 24.3 °F 10.4 °F 44% 30.18 in 10.0 mi North 5.8 mph - N/A   Clear